Theta_e
293 292 291 290 290 288 287 285 284 283 283 282 282 282 282 281 281 281 281 281 280 280 280 280 279 279 278 278 279 278 278 278 277 277 277 277 277 277 278 279 279 279 279
292 291 290 289 289 287 286 284 283 282 282 282 281 282 281 281 281 281 280 280 280 279 279 279 278 277 277 277 278 277 277 277 276 274 275 276 276 277 278 277 278 278 278
291 290 288 287 286 286 285 284 283 282 281 281 281 281 280 280 280 280 280 279 279 279 279 278 278 277 276 276 276 276 276 276 276 275 274 276 276 277 277 278 277 277 278
290 290 288 286 285 286 284 283 282 282 281 281 281 280 280 280 279 279 279 279 279 279 279 278 278 277 277 276 276 276 275 275 274 274 274 274 275 277 277 275 275 277 276
288 288 287 287 286 285 284 283 282 281 281 281 280 280 279 279 279 279 279 279 279 278 278 278 278 278 279 278 276 276 275 275 274 274 273 274 274 274 274 276 274 275 276
287 287 286 285 285 284 283 282 281 280 280 280 279 279 279 278 282 283 280 279 278 277 277 277 277 278 278 281 281 279 277 275 273 274 274 273 274 275 275 274 274 273 271
286 286 285 285 283 283 282 281 280 279 279 279 279 279 278 279 284 284 282 279 278 278 277 277 276 277 277 277 281 282 282 282 281 275 274 274 275 276 276 274 274 273 272
285 285 284 283 283 282 281 280 280 280 279 279 278 279 279 278 285 285 283 279 279 278 277 277 277 276 276 275 275 275 276 277 278 279 278 277 277 277 277 276 275 272 272
283 283 283 282 282 281 280 280 280 279 279 279 279 279 279 278 285 286 283 278 278 277 277 277 277 277 278 280 276 274 275 275 277 280 280 281 281 282 281 276 271 269 268
282 282 282 282 281 280 281 280 280 280 279 279 278 279 279 278 285 286 284 280 279 278 277 277 278 277 279 281 279 276 274 275 275 275 276 277 279 276 277 275 272 268 267
281 280 280 281 280 280 281 280 280 279 278 278 278 278 278 278 282 286 287 281 281 279 278 278 277 281 281 281 282 278 277 277 276 276 274 275 274 272 272 272 272 270 268
279 279 279 280 280 280 278 278 279 278 277 277 277 276 277 277 279 285 287 286 284 280 279 279 279 280 282 283 282 282 283 282 280 277 274 272 271 271 271 271 271 271 271
277 277 279 281 280 280 279 278 278 278 277 276 276 276 276 277 277 282 286 286 287 282 281 281 280 281 282 282 282 282 281 280 278 272 271 271 271 272 271 270 270 270 269
280 280 280 279 280 280 280 280 279 278 278 277 277 277 277 277 277 278 281 283 284 285 285 282 281 281 280 279 277 279 278 277 275 274 273 272 271 269 268 269 267 267 265
280 280 280 280 280 280 280 280 280 280 281 279 279 280 279 280 279 280 279 279 280 281 277 273 274 274 274 274 273 273 273 273 272 272 271 269 268 268 268 268 266 265 263
280 280 281 281 281 280 279 277 282 283 284 285 285 283 281 283 282 282 282 282 282 281 275 270 270 271 271 271 272 272 272 271 271 270 269 268 267 266 266 266 265 263 261
279 277 277 277 277 277 277 277 275 276 283 284 283 281 281 278 281 281 281 281 281 279 272 268 269 269 270 271 270 269 268 268 268 267 266 265 265 264 263 262 262 261 260
268 268 270 273 275 275 275 275 275 275 273 274 278 278 278 278 279 279 280 279 272 270 268 267 267 266 266 266 265 265 264 263 263 263 263 262 260 261 260 260 259 258 257
267 265 264 263 265 265 265 265 265 264 265 264 267 271 268 279 279 275 272 265 265 264 264 264 264 264 263 263 261 260 259 259 258 258 257 256 257 256 256 256 257 256 257
262 263 261 261 261 262 262 262 262 262 263 263 263 263 261 265 263 260 259 260 262 262 261 261 259 258 257 257 255 254 254 253 254 253 254 254 255 254 255 255 255 256 257
257 258 258 258 258 257 258 259 259 259 260 259 259 259 265 261 261 260 260 259 260 259 257 256 254 253 252 251 251 251 251 254 253 252 252 253 252 252 254 256 256 256 256
255 254 255 254 255 256 254 256 257 257 257 258 257 258 270 258 259 258 258 256 254 253 252 253 253 252 252 251 251 251 251 252 252 251 251 251 252 253 254 255 254 255 255
256 255 254 253 254 254 254 252 254 255 255 254 256 257 256 256 254 253 253 252 250 250 248 248 250 249 248 247 248 251 251 251 252 251 251 251 252 253 253 253 253 253 254
254 254 254 252 252 252 252 251 252 252 253 253 252 252 252 250 251 251 250 249 248 248 246 246 246 248 248 248 248 247 248 250 250 250 250 251 252 251 253 253 253 253 253
251 252 251 250 248 249 249 249 251 248 249 251 250 250 249 249 248 248 248 247 246 247 248 246 246 247 249 249 248 247 247 252 253 250 249 251 251 250 251 251 251 250 248
250 250 247 247 247 247 247 249 248 250 249 250 250 249 249 249 250 249 248 247 247 248 248 248 248 248 248 249 249 250 250 254 251 251 251 250 250 249 249 249 247 246 246
Wind_Speed
13 12 12 11 11 11 11 11 10 10 11 11 11 12 12 12 10 10 10 11 11 10 8 9 8 8 5 4 4 4 4 2 2 0 2 2 4 4 6 7 7 8 8
12 12 13 12 11 11 10 10 11 11 10 10 9 11 10 12 11 11 12 10 12 11 10 9 9 6 6 5 4 5 4 4 3 3 1 2 3 4 7 9 6 6 8
11 12 12 12 12 13 12 13 13 13 13 11 12 13 13 13 12 11 11 11 10 10 10 9 10 9 8 5 5 5 4 4 3 3 2 1 3 4 6 7 8 8 6
12 13 14 13 13 13 13 14 15 15 15 14 14 13 12 12 12 11 11 11 10 8 8 8 9 10 9 9 7 7 6 5 4 4 4 5 4 4 6 7 7 7 9
13 14 14 12 12 11 12 13 13 14 14 14 14 12 12 11 9 11 11 11 10 9 7 7 7 7 11 11 6 7 7 6 5 6 6 5 6 5 6 4 8 9 9
14 15 13 14 13 13 13 13 13 14 14 14 14 15 14 9 19 21 15 10 9 9 7 6 6 8 10 14 15 11 10 8 7 5 6 8 9 7 6 6 7 8 6
14 13 13 13 14 14 13 13 14 14 13 15 14 13 14 12 23 23 20 9 9 8 8 7 7 6 8 6 12 14 15 17 15 8 9 9 9 7 7 8 7 7 9
12 10 11 12 12 12 13 14 13 13 15 14 13 13 12 9 23 22 19 9 7 8 8 8 8 8 9 8 7 7 7 7 8 7 8 8 9 8 10 8 5 7 7
11 11 11 12 11 12 13 13 12 12 13 14 13 13 13 10 22 22 17 8 7 7 7 7 8 8 12 16 8 8 9 9 11 18 19 18 18 20 4 3 3 5 9
8 9 9 10 11 12 12 11 8 7 7 6 7 8 9 9 20 22 18 6 7 6 6 7 14 10 15 18 10 8 10 10 8 7 7 11 13 3 8 5 2 4 6
6 8 9 9 10 10 9 8 8 8 8 7 7 6 8 10 13 24 23 9 7 7 7 8 8 20 20 20 18 10 11 7 10 9 7 7 6 5 5 4 5 7 7
7 7 8 10 9 9 12 9 10 10 9 8 8 6 5 7 13 22 23 19 16 9 10 8 8 17 20 21 16 19 20 17 8 6 6 6 6 6 6 6 9 9 8
6 6 7 9 10 12 13 13 10 10 9 9 8 8 8 8 8 20 22 22 20 12 8 12 14 17 19 17 18 18 14 7 6 4 5 6 6 5 5 5 8 9 10
7 7 7 8 7 6 6 7 8 11 10 9 9 9 7 7 8 8 8 9 17 14 14 11 13 14 14 11 6 10 4 2 4 5 4 2 2 3 6 5 4 5 7
6 6 6 6 7 7 6 7 6 6 7 7 7 7 9 9 8 11 11 8 8 11 4 2 2 3 4 4 3 3 3 3 4 4 4 4 4 5 6 4 5 4 6
5 4 4 5 4 4 5 5 5 6 14 11 9 6 2 3 10 16 18 18 17 16 4 3 4 4 5 4 5 5 3 3 3 2 3 4 6 6 7 5 5 5 7
5 4 3 4 4 5 4 5 4 3 6 7 7 6 7 6 10 12 14 15 14 12 5 3 3 5 5 4 3 3 2 2 1 4 5 5 6 6 6 6 6 6 7
6 6 3 2 2 3 3 3 3 4 4 2 3 6 5 7 11 8 10 7 3 2 2 3 4 4 4 3 3 2 2 3 3 4 4 3 3 5 6 7 7 7 7
5 4 3 4 3 3 3 3 3 3 3 3 1 4 4 9 9 11 10 3 3 2 3 3 3 3 3 3 3 2 2 3 3 2 2 3 3 3 5 5 6 8 9
5 7 5 4 4 4 3 4 4 4 4 4 3 3 0 4 2 3 3 2 2 2 2 3 3 3 3 3 3 3 2 2 3 3 3 3 3 3 5 5 6 7 7
4 4 5 4 3 2 3 3 3 3 3 3 2 2 4 3 3 2 2 2 3 3 4 3 3 3 3 3 3 3 3 3 3 3 3 3 3 4 5 6 6 6 7
4 4 4 3 3 3 3 3 3 4 4 4 2 2 7 2 3 3 2 2 2 2 2 3 3 4 4 4 4 4 4 5 4 4 4 3 4 4 5 5 5 6 6
4 4 4 3 3 4 4 3 3 3 3 3 3 3 2 3 3 3 4 3 3 3 3 3 3 3 3 4 4 4 5 6 6 4 4 4 4 5 4 6 6 5 6
4 4 4 3 3 3 3 3 2 3 2 2 2 2 2 3 3 4 3 3 3 3 3 4 4 6 4 4 4 4 5 5 4 5 7 5 5 5 5 6 6 6 6
4 4 4 3 3 2 2 2 2 1 1 1 2 2 2 3 3 4 4 4 4 4 4 4 4 6 8 8 7 8 8 12 8 7 5 6 7 7 6 6 6 4 4
4 4 3 2 1 0 0 1 2 3 3 3 3 4 4 4 4 4 4 4 4 4 5 4 6 9 9 8 9 10 10 11 9 10 7 6 6 6 6 7 6 4 6
Wind_Direction
177 168 172 177 177 170 173 170 164 152 158 164 161 149 153 149 148 136 137 140 139 139 140 137 131 135 129 141 143 126 116 100 154 181 269 316 318 336 317 315 304 305 309
181 173 177 174 173 172 172 166 159 159 160 157 157 154 162 152 153 150 148 151 150 153 151 142 141 140 154 166 150 138 148 162 161 224 271 299 272 295 292 298 297 302 308
175 175 176 178 178 181 175 170 171 163 165 160 167 164 168 163 157 158 158 158 158 159 157 151 152 161 168 170 167 168 167 170 188 213 266 264 284 276 290 291 302 308 313
177 182 184 183 185 183 177 175 174 171 167 169 174 171 168 167 162 160 157 160 161 158 156 157 164 178 171 175 184 190 177 178 191 220 247 265 266 273 285 300 314 320 317
182 186 187 181 184 180 180 180 177 176 176 174 168 168 162 173 167 163 163 164 161 156 162 161 177 182 186 190 184 191 181 189 204 222 238 249 257 265 276 298 298 310 316
188 192 182 174 177 181 176 178 180 179 174 171 176 172 170 180 176 172 164 161 155 163 159 175 181 183 204 206 211 202 198 189 209 216 236 245 256 255 266 280 292 314 330
194 190 185 180 177 179 174 174 180 181 175 179 177 173 171 179 177 179 170 158 167 163 167 183 193 200 198 212 229 225 223 222 219 214 231 238 256 239 257 271 279 287 289
192 187 177 179 181 176 175 180 181 180 181 180 181 176 168 184 177 179 169 159 164 167 181 193 200 196 200 196 207 232 241 243 248 248 244 252 245 259 251 260 278 285 290
187 178 177 174 172 173 179 180 182 179 183 182 176 171 172 178 179 176 166 164 174 170 187 194 205 210 208 212 205 224 238 244 246 249 252 254 255 257 232 214 273 323 312
177 175 163 164 162 169 174 174 173 176 169 152 149 166 166 170 181 179 176 169 171 188 200 210 216 217 219 220 221 212 239 246 228 235 251 265 268 248 234 240 247 273 280
142 146 151 155 157 156 145 142 144 134 131 135 149 156 163 174 187 186 190 184 186 193 201 213 219 226 228 230 225 221 233 251 243 243 234 240 232 228 231 231 237 242 253
135 139 141 141 142 136 128 121 128 134 143 151 157 159 180 186 196 197 203 197 198 199 212 220 220 219 230 238 232 238 247 252 242 231 223 224 227 227 229 230 234 238 249
121 127 135 137 139 141 140 142 142 150 163 171 179 188 194 195 200 207 214 216 217 212 213 220 216 221 231 239 241 246 248 247 244 220 228 233 229 236 220 232 240 248 265
125 123 125 130 133 139 143 158 166 170 176 180 187 197 194 190 204 204 213 222 231 235 229 222 219 217 219 220 216 243 242 213 224 239 248 226 194 217 234 233 258 261 276
116 126 134 136 148 150 152 162 174 191 193 190 201 194 188 204 208 198 195 208 216 226 195 119 160 167 189 199 202 205 220 240 252 264 260 249 254 263 267 249 252 259 263
115 131 136 134 133 138 126 107 77 172 197 207 193 178 198 200 184 202 213 223 226 226 181 179 177 182 201 207 230 242 219 220 232 251 271 269 272 275 278 272 253 261 279
124 123 117 117 132 140 139 149 144 49 174 184 145 166 193 216 213 222 223 220 215 210 197 179 182 187 204 200 169 145 169 177 217 258 270 270 275 278 281 280 271 273 277
99 90 119 138 149 154 149 143 141 160 158 124 155 159 193 207 199 196 195 168 119 54 125 147 147 140 143 150 169 197 219 245 250 254 255 265 272 280 282 276 277 275 280
96 94 99 102 110 119 120 127 136 138 147 139 113 76 352 162 128 83 75 106 142 146 125 122 130 150 170 176 184 191 210 239 249 258 256 256 272 263 264 266 271 268 270
93 111 109 116 122 128 145 142 145 155 160 164 160 155 105 57 71 49 44 68 95 96 131 150 162 166 173 180 184 194 211 226 236 233 244 252 261 248 262 264 265 273 274
70 68 83 85 93 125 125 134 145 148 152 139 144 191 135 114 149 159 176 173 170 167 168 174 177 183 185 182 186 194 218 244 233 240 244 249 250 259 252 260 274 269 270
69 69 63 88 94 88 102 130 141 140 148 150 169 247 163 111 156 167 173 176 183 186 187 180 193 202 195 192 195 203 220 237 240 238 250 248 243 244 251 262 260 268 270
72 79 68 65 68 82 75 72 103 118 138 140 146 137 124 152 170 183 194 198 198 201 199 205 219 232 218 220 214 206 212 224 230 203 222 232 236 245 237 255 258 258 262
58 66 79 71 56 74 92 93 90 94 122 150 163 174 183 187 199 212 215 213 222 229 220 213 216 231 239 229 221 218 229 237 221 222 211 214 225 228 238 239 244 248 260
51 58 59 55 61 70 74 68 87 102 140 206 217 215 219 223 233 236 236 230 237 242 239 226 224 236 244 243 235 229 228 241 224 210 204 213 218 219 227 231 238 237 252
57 57 59 58 56 24 194 230 244 236 225 229 232 230 229 228 230 235 234 229 239 245 250 237 237 237 239 239 239 237 230 229 225 224 205 204 213 224 221 230 233 233 241